Theta_e
303 303 303 303 304 304 305 305 305 304 303 299 296 298 299 295 294 305 308 307 303 291 285 288 285 287 291 295 295 295 293 292 292 291 293 291 293 291 291 291 288 290 288 288 286 286 283 285 283 285 286 287 291 293 294 293 292 288 284 290 289 305 278 277 279 281 283 287 288 289 290 289 287 284 285 283 280 284 280 280 279 276 276 278 274 273 276
302 302 303 303 304 304 304 304 305 304 304 298 296 296 296 296 296 300 306 303 300 289 284 283 283 289 292 292 291 294 293 291 289 291 291 291 291 290 291 289 291 288 289 288 285 287 278 285 286 282 286 286 291 291 293 294 289 290 288 286 289 281 281 280 275 272 276 277 280 281 284 284 280 282 281 285 283 284 284 283 281 278 277 278 275 271 270
302 302 302 303 303 304 304 304 304 304 304 303 296 295 296 296 297 300 300 300 296 289 290 287 283 286 288 288 287 288 290 292 292 292 291 293 290 290 288 290 290 288 289 288 288 289 285 282 286 288 288 286 292 292 293 294 291 295 296 304 291 283 281 280 275 271 269 267 268 270 272 277 281 283 283 284 283 281 280 274 276 273 276 280 275 272 278
302 302 302 302 303 303 304 304 304 303 304 304 298 297 297 293 284 287 291 292 293 291 294 291 289 284 286 284 285 289 287 291 293 293 291 292 292 291 291 290 290 289 287 285 287 286 289 286 284 285 284 287 290 293 293 294 294 303 305 301 291 283 283 279 277 276 275 277 276 280 284 280 278 281 282 282 283 282 280 277 274 273 272 276 276 279 280
301 302 302 302 302 303 303 304 303 303 303 304 296 298 297 295 286 284 282 289 288 289 289 290 290 285 290 282 287 286 288 290 291 293 288 292 292 292 291 290 287 285 286 284 285 287 286 289 286 287 287 289 290 293 292 292 302 304 300 299 285 281 279 280 281 281 282 282 283 284 285 281 282 281 282 283 282 282 282 276 276 276 276 273 278 279 279
301 301 302 302 302 303 303 303 303 302 302 305 302 293 294 283 287 290 291 286 282 283 283 291 289 291 292 287 291 288 288 288 285 290 292 293 291 287 287 289 288 287 287 285 280 283 284 284 281 288 288 286 289 289 291 290 297 300 292 294 286 281 277 280 282 281 283 283 284 284 282 282 282 282 281 280 281 281 279 277 281 280 275 275 279 279 278
301 301 301 301 302 302 302 303 302 301 301 304 296 289 291 291 290 291 293 284 287 288 290 292 291 289 290 287 290 288 288 287 290 289 288 290 288 289 279 284 287 287 288 285 281 283 277 277 283 284 283 284 284 283 286 289 290 290 288 288 286 282 277 281 282 282 282 282 282 283 282 281 282 282 282 281 280 280 280 280 280 281 279 280 280 278 278
300 301 301 301 301 302 302 303 303 301 301 302 297 292 288 286 287 286 290 288 287 288 289 290 288 285 291 284 286 289 287 286 287 289 287 281 285 289 284 285 286 286 287 285 281 284 284 283 279 283 283 281 284 282 285 283 287 288 286 287 287 285 277 286 282 278 278 281 282 282 282 281 281 282 281 281 280 279 279 279 279 281 279 279 279 276 275
300 300 301 301 301 301 302 303 302 301 300 296 294 293 293 292 294 293 288 283 285 290 288 287 286 282 284 284 288 288 287 286 288 288 291 287 285 287 285 287 286 286 286 285 284 287 285 285 283 284 285 279 286 283 282 287 284 286 285 286 286 286 278 282 281 275 273 279 281 282 281 280 279 278 280 279 278 276 277 278 278 279 276 278 277 275 272
300 300 301 301 301 301 302 302 302 301 299 293 291 290 296 293 294 295 289 284 290 285 287 286 283 280 285 289 288 287 286 288 288 280 288 290 290 290 288 288 284 284 284 284 285 287 287 287 287 286 286 286 286 286 287 287 284 282 284 285 282 281 279 277 275 275 269 279 281 280 277 277 277 275 275 280 281 280 280 280 281 282 281 276 275 274 276
300 300 300 300 301 301 301 302 302 301 297 291 289 289 293 291 288 289 287 284 281 284 284 283 283 287 289 290 288 289 287 287 288 282 282 290 290 291 290 288 284 281 283 287 290 289 289 288 288 287 286 286 285 285 286 287 287 286 285 283 281 282 282 277 278 273 270 278 279 279 273 270 271 275 279 282 281 281 280 278 281 284 282 277 277 280 284
299 299 300 300 300 300 301 301 301 302 299 294 292 291 294 295 291 289 281 282 281 283 284 281 284 286 287 289 289 287 286 286 286 290 285 288 289 290 289 287 285 280 288 292 290 289 290 290 288 287 286 285 285 286 286 285 286 288 287 284 281 282 281 277 277 275 271 273 277 272 268 273 279 281 284 285 284 283 280 281 282 284 284 285 285 285 285
299 299 299 300 300 300 300 300 301 301 301 296 293 289 293 296 292 287 285 282 280 282 280 283 287 288 288 289 287 287 288 288 289 289 289 287 287 289 290 288 287 288 292 289 289 287 284 281 281 281 284 285 286 286 285 285 285 286 286 287 283 280 279 277 276 273 271 271 270 265 272 278 282 283 284 286 286 283 284 279 281 284 284 285 283 285 285
299 299 299 299 300 300 300 300 301 301 301 299 292 292 293 295 290 285 283 281 281 283 285 284 285 285 286 286 287 286 287 286 286 287 285 289 287 286 288 289 289 291 289 289 286 283 279 278 276 277 278 281 279 277 282 285 285 285 285 286 286 284 280 278 275 276 274 268 269 273 276 278 280 279 280 282 281 279 280 274 276 284 285 284 284 284 285
299 299 299 299 299 300 300 300 300 301 301 300 294 292 292 294 293 290 288 284 281 282 282 280 283 284 285 286 287 282 282 282 283 283 287 289 288 290 289 290 291 289 290 285 281 279 278 276 273 271 274 272 268 271 282 279 285 287 286 286 286 285 280 279 276 274 276 274 269 268 268 269 270 279 285 288 287 284 281 279 276 283 284 286 284 284 284
298 299 299 299 299 299 300 300 300 301 301 300 294 292 292 294 295 291 289 283 281 278 282 287 287 285 283 285 286 284 281 278 281 281 281 284 286 287 290 291 291 291 289 285 281 279 278 276 271 270 267 271 277 276 273 280 280 284 285 285 285 284 285 281 280 274 274 273 270 268 267 268 273 279 285 287 287 285 281 277 275 280 284 284 286 285 284
298 298 299 298 298 299 300 299 300 300 300 300 293 291 289 294 292 291 287 285 284 280 288 289 288 287 282 281 284 283 284 280 281 278 278 279 284 285 287 290 290 289 288 282 280 278 278 275 277 276 276 279 275 271 279 278 276 278 282 283 282 280 278 278 277 275 275 273 272 271 272 270 281 283 285 286 287 283 280 272 267 278 282 283 285 286 285
298 298 299 299 299 299 299 299 299 300 300 300 295 290 290 294 294 293 288 285 281 280 286 289 287 282 281 282 281 285 286 283 282 281 280 282 283 283 285 286 285 288 289 281 279 277 276 274 271 272 270 279 281 281 270 275 274 274 276 277 277 277 278 279 275 274 276 277 274 273 274 283 286 286 286 288 288 283 272 269 273 280 282 284 285 285 286
298 298 299 298 298 298 299 300 300 300 300 300 295 291 290 293 294 295 289 285 282 280 286 291 291 288 288 290 286 287 287 285 283 278 278 277 280 285 286 286 287 279 284 280 280 277 274 274 278 277 273 274 281 273 277 274 272 277 277 275 274 274 275 277 276 275 274 274 272 273 273 282 288 288 289 289 282 272 270 278 284 284 283 284 286 286 286
298 298 298 298 298 298 298 299 300 300 300 300 296 288 290 293 294 295 291 286 285 283 287 287 289 286 289 286 283 281 284 283 281 278 278 275 281 284 281 278 282 283 280 280 274 279 276 273 277 279 274 276 278 281 274 272 279 277 277 278 274 275 273 270 273 275 275 272 269 269 268 281 289 288 284 286 276 275 282 284 284 285 284 285 286 287 286
298 298 298 298 298 298 298 299 299 300 300 300 298 289 288 292 293 294 294 290 285 282 282 289 291 289 289 288 288 288 286 282 283 280 280 280 283 281 272 275 277 279 277 278 273 274 276 272 276 277 280 278 278 278 271 271 275 281 280 277 277 279 272 271 273 277 270 269 268 271 276 282 287 286 279 280 284 286 286 285 283 284 286 286 285 285 286
298 298 299 298 298 298 298 298 299 299 300 300 299 291 285 290 293 294 294 292 285 282 284 289 292 290 292 292 292 291 290 289 290 288 283 281 282 282 280 283 281 281 282 282 277 276 278 277 279 273 272 274 278 272 276 272 267 274 280 279 271 281 277 276 272 276 274 269 269 277 281 282 284 287 286 286 288 288 287 286 285 285 286 286 286 286 287
298 298 298 297 297 297 298 298 299 299 300 300 297 289 287 289 291 294 292 285 285 287 290 289 289 290 293 294 295 294 294 295 292 291 288 282 280 281 282 281 279 286 284 284 279 280 280 280 273 279 275 276 274 272 275 275 268 275 272 278 277 282 283 283 281 278 281 281 282 283 281 282 283 286 289 288 288 290 290 289 286 284 286 286 287 288 288
298 298 297 297 297 297 297 298 298 299 300 300 298 290 289 289 291 291 289 287 283 282 283 284 283 281 285 287 291 294 292 292 294 292 290 288 280 278 280 284 285 282 281 285 282 280 280 280 282 281 274 276 279 273 270 269 269 274 275 274 277 280 280 278 274 276 275 270 277 281 282 283 284 284 285 288 290 291 289 288 287 287 288 288 289 289 289
298 298 298 297 297 297 297 297 298 298 299 299 297 296 293 290 290 291 287 281 281 281 276 280 280 287 291 293 293 291 291 294 294 292 291 289 286 282 281 283 286 283 282 282 285 283 282 276 278 278 275 281 281 272 277 273 274 279 271 272 277 276 282 279 278 276 272 273 279 282 283 283 283 283 285 286 286 286 287 288 288 288 289 289 290 289 288
298 298 298 297 297 298 298 298 298 298 298 298 298 291 288 288 291 291 289 288 286 282 277 276 281 290 292 290 289 290 293 293 291 291 292 292 291 290 288 287 287 287 284 285 284 280 280 279 279 277 275 276 282 274 274 277 277 280 277 276 280 280 283 273 277 277 279 281 281 282 281 282 282 284 285 285 285 286 287 287 287 288 287 288 289 289 289
298 297 297 298 298 298 298 298 299 298 298 298 296 291 290 290 292 289 286 286 281 276 278 275 279 286 290 287 291 293 293 291 291 290 290 291 291 290 288 286 285 284 285 283 282 279 279 279 276 275 278 276 282 280 280 279 279 277 275 281 283 281 277 281 278 273 272 273 278 280 275 276 281 282 284 285 286 286 287 286 286 287 287 288 288 289 289
298 298 298 298 298 298 298 298 298 298 298 298 296 292 291 290 291 292 291 290 284 277 279 279 280 284 290 287 291 291 291 292 290 289 289 290 291 291 288 287 285 284 282 282 280 280 279 274 277 277 276 279 278 277 282 281 279 277 277 279 283 280 280 279 274 272 274 279 281 281 281 281 282 283 284 285 287 287 287 286 286 287 287 288 288 287 288
298 298 298 298 298 298 298 298 298 298 299 298 291 291 290 290 292 293 294 294 291 287 285 284 285 283 277 283 290 289 291 290 290 289 289 290 291 291 288 286 284 284 283 281 279 279 278 278 279 278 276 281 279 275 278 274 272 272 277 282 281 283 284 283 282 281 281 283 282 283 282 282 284 286 287 287 288 287 287 288 288 288 288 289 288 288 287
298 298 298 299 299 299 299 299 299 299 299 293 289 285 280 287 294 296 298 300 294 291 283 281 276 278 285 287 285 288 289 291 290 290 289 287 287 287 287 287 286 288 284 281 281 277 278 279 278 280 285 287 281 277 273 274 272 277 282 282 284 284 285 285 285 282 282 284 285 285 285 286 287 287 287 288 289 289 288 287 288 288 289 289 288 288 288
298 299 299 300 300 300 300 300 300 300 298 289 288 283 283 281 289 299 298 298 293 287 283 282 277 281 280 285 285 286 288 289 288 287 287 287 286 286 287 288 285 287 281 282 281 280 279 275 278 277 283 285 283 274 273 272 271 276 280 282 283 283 283 284 285 285 285 285 286 286 286 287 287 287 287 287 287 287 287 288 291 293 292 291 291 290 289
299 299 299 300 300 300 300 301 300 300 293 289 286 284 286 286 290 295 298 296 290 286 281 275 274 276 278 281 285 289 289 289 289 288 285 287 284 286 285 287 281 284 285 280 280 280 279 278 277 279 280 285 283 269 276 274 273 276 281 281 283 283 284 284 285 286 286 287 285 284 283 284 285 284 284 286 287 289 289 290 290 290 291 291 291 289 289
298 299 299 300 300 300 301 301 301 299 292 294 298 298 299 299 299 298 298 293 288 282 282 279 276 280 277 278 285 288 290 285 283 284 282 284 283 284 279 283 284 283 293 283 278 278 278 278 277 277 281 284 277 275 274 274 277 281 282 283 283 284 284 285 285 286 286 286 285 283 282 284 285 287 287 288 289 289 290 290 291 291 290 289 290 289 289
298 299 299 300 301 301 301 302 302 300 298 291 286 287 291 297 297 298 294 290 285 283 282 278 273 273 274 282 280 282 287 281 280 279 277 284 284 283 279 280 280 278 280 279 279 280 278 279 277 276 278 277 276 272 271 277 280 281 282 282 283 283 284 284 285 285 286 286 286 287 287 287 288 288 288 288 288 289 290 290 290 289 290 289 289 289 288
298 299 300 301 301 302 302 301 292 290 284 286 287 290 291 300 299 299 295 285 276 279 280 280 281 275 274 275 274 279 288 282 278 279 278 281 284 281 280 278 277 276 278 283 277 275 275 278 278 275 273 275 274 271 272 276 280 282 283 283 284 284 284 284 284 284 285 285 286 287 287 287 287 286 287 288 288 289 288 288 288 288 288 289 289 289 288
298 299 300 301 302 301 294 295 290 288 285 286 287 296 302 301 300 293 292 290 284 277 277 277 279 275 275 271 271 277 286 279 280 280 280 279 279 281 281 276 273 276 279 278 272 275 274 279 277 271 272 272 271 271 273 278 281 282 282 282 284 284 284 285 286 287 287 287 287 288 288 288 287 287 287 286 286 286 287 287 288 288 288 288 286 287 288
298 299 300 299 295 290 287 287 293 292 288 291 295 301 301 299 295 295 291 289 290 288 279 276 275 275 276 272 276 281 282 273 278 276 279 277 275 277 277 276 272 278 277 274 273 273 276 283 276 272 272 272 270 276 281 283 283 283 283 285 286 285 285 286 288 287 285 286 288 287 286 285 284 284 284 284 285 286 286 286 287 287 287 288 287 287 288
297 297 290 286 284 281 282 284 287 293 299 298 299 290 287 288 281 282 286 284 286 289 282 281 275 276 279 278 274 281 281 274 277 275 273 277 275 275 278 275 273 277 268 270 273 279 278 277 274 271 271 275 281 283 284 285 285 285 286 286 285 286 286 287 286 286 285 285 284 284 285 285 285 285 284 285 287 287 287 287 288 288 289 289 289 289 289
294 289 285 284 282 280 281 284 293 299 294 293 290 284 281 282 279 279 278 282 284 282 284 281 278 279 278 276 277 282 280 276 272 273 271 275 275 270 276 268 273 275 269 270 271 280 271 269 270 271 270 274 280 282 285 286 287 286 286 286 286 286 288 288 288 285 284 284 284 285 284 283 283 285 286 287 288 290 291 290 289 292 292 290 291 291 292
287 284 281 281 280 282 289 293 297 293 289 283 283 281 278 280 277 275 281 276 277 280 281 277 281 280 281 278 275 275 281 278 271 269 271 275 280 272 273 274 273 274 265 267 269 278 273 270 271 271 271 276 280 282 284 285 285 286 286 285 287 289 288 287 286 286 286 286 287 286 287 287 288 287 287 287 288 288 288 289 289 290 292 291 291 292 291
285 284 282 280 283 285 288 291 290 287 283 279 279 279 277 274 279 279 277 273 272 274 280 278 278 277 278 279 278 275 280 283 279 279 276 274 277 278 271 268 274 270 266 267 273 278 275 273 271 271 274 280 281 282 283 285 286 286 286 286 288 287 286 286 287 287 287 286 287 287 287 287 287 287 288 288 289 287 286 286 288 289 290 290 290 290 291
287 287 288 290 290 291 289 286 284 280 280 281 274 272 275 275 277 277 278 271 271 275 278 279 274 277 275 279 279 279 277 281 278 279 275 271 277 274 269 272 274 266 265 268 274 276 275 270 268 271 275 281 282 283 284 285 286 286 286 288 288 287 286 287 287 287 288 287 286 286 286 287 286 286 287 288 288 288 288 288 288 289 289 290 290 290 290
296 295 293 288 286 282 283 279 280 279 271 273 271 268 273 271 273 272 272 276 277 275 276 283 279 281 281 282 279 280 279 281 279 277 275 271 278 277 271 269 269 265 266 273 275 271 270 267 267 270 276 280 282 283 285 286 286 285 286 289 287 286 286 287 287 287 287 287 286 286 286 286 285 285 287 288 288 288 288 288 289 289 289 289 290 290 290
291 290 284 282 280 279 280 270 280 278 275 273 269 266 268 269 272 275 273 273 276 275 276 276 276 277 274 278 277 276 277 279 282 278 277 278 275 269 270 267 266 268 275 273 270 269 267 270 271 275 279 280 283 284 285 286 285 285 286 287 286 285 287 288 288 287 287 287 287 286 286 286 286 286 286 286 287 286 286 287 288 288 288 288 288 288 289
283 280 280 277 275 278 276 268 277 273 266 269 275 271 272 270 270 273 274 280 278 276 279 278 278 278 276 278 278 277 279 274 280 273 270 274 270 270 269 265 269 274 271 266 267 266 269 269 272 277 280 281 282 284 285 285 285 285 285 285 286 287 287 287 287 287 286 286 286 286 285 286 285 285 285 285 285 286 286 286 287 287 287 287 287 287 288
279 278 277 272 268 273 273 268 272 269 272 276 274 277 277 278 278 278 280 280 278 277 278 278 278 279 276 277 275 272 277 276 272 272 275 274 269 265 270 274 274 268 267 267 264 263 265 273 276 278 281 282 283 284 285 285 286 287 286 285 286 287 287 287 287 287 286 286 286 286 286 286 285 285 285 285 285 285 286 287 287 287 287 287 286 286 287
283 283 281 277 271 273 277 269 268 272 276 276 276 277 278 280 282 280 279 278 276 278 278 279 279 279 276 273 274 274 275 277 272 274 275 268 267 271 277 269 265 267 265 263 263 264 270 276 278 279 282 283 284 285 285 285 285 285 284 285 285 286 287 287 288 287 288 287 287 286 286 286 285 286 286 286 285 286 286 287 287 287 286 286 286 287 287
281 284 280 269 267 272 270 271 277 277 278 278 277 278 280 280 280 279 283 281 280 279 279 279 274 274 274 275 277 272 270 274 272 271 274 271 273 269 266 266 266 267 267 265 265 269 275 278 280 282 282 283 284 285 285 284 283 284 284 284 283 283 283 285 285 286 287 287 287 286 286 286 286 286 285 285 285 286 286 287 287 287 287 286 286 286 286
283 281 276 273 274 275 273 275 277 276 278 279 279 278 278 279 279 280 282 279 279 280 279 278 275 274 272 275 274 272 270 272 269 268 274 270 266 263 263 262 262 262 265 269 270 273 276 279 281 282 283 283 284 285 285 284 282 283 284 284 284 284 284 283 284 284 285 285 284 285 286 287 287 286 286 286 285 286 287 287 287 287 287 286 286 285 285
281 279 281 277 275 274 276 276 276 274 275 277 277 277 279 279 279 281 282 281 281 279 280 281 280 276 273 274 269 271 269 271 271 272 268 265 265 266 265 262 262 264 264 268 272 276 278 280 279 280 282 283 284 285 285 285 283 283 281 283 285 285 284 285 285 284 284 283 284 284 284 284 285 285 285 285 285 286 286 286 286 286 286 286 286 285 284
283 279 277 280 275 273 275 269 269 271 274 275 277 278 279 278 278 279 281 280 280 275 273 272 274 273 271 269 269 265 266 273 271 267 266 265 268 267 264 263 263 266 272 275 277 279 280 280 279 280 282 283 284 285 285 285 285 285 285 283 284 285 285 285 285 284 284 283 283 283 283 283 283 284 285 285 285 285 284 284 285 285 284 284 284 284 283
279 274 273 277 279 279 278 278 276 277 277 279 279 281 280 279 279 281 281 279 277 274 272 273 274 271 269 266 267 270 273 271 268 268 266 267 272 268 265 267 272 274 275 276 278 280 280 279 280 281 282 283 284 285 285 286 286 286 285 284 285 285 284 284 284 283 283 283 283 282 283 283 283 283 283 283 282 283 282 282 283 283 284 284 284 284 283
Wind_Speed
28 29 28 28 29 29 29 29 28 25 26 8 7 3 3 2 2 6 6 2 2 2 1 1 3 0 2 5 0 3 1 2 3 5 5 4 1 1 1 1 1 2 1 2 3 4 1 2 3 2 1 2 1 5 4 7 7 4 1 1 1 4 1 0 2 5 5 6 4 4 7 3 3 3 2 4 2 1 0 2 4 2 2 1 1 2 7
29 28 28 29 29 30 30 30 29 23 18 4 4 2 1 2 2 5 2 5 3 6 2 5 6 2 3 2 3 3 2 4 5 2 4 1 1 0 1 2 2 2 2 1 1 1 2 4 4 3 1 1 4 11 11 9 3 1 3 1 2 2 2 3 1 3 6 6 6 4 6 6 2 1 2 1 1 2 2 1 1 1 4 6 6 8 3
29 28 28 29 29 29 30 30 30 27 17 8 0 1 2 2 2 2 6 8 7 4 0 1 1 4 4 3 6 6 2 2 3 2 5 3 1 0 0 1 0 1 1 0 0 0 2 1 3 1 2 3 1 8 10 9 6 3 5 6 3 2 3 2 2 4 5 3 1 3 2 3 3 1 1 0 2 3 7 2 4 1 3 1 2 4 8
28 29 28 29 29 29 30 30 30 28 22 11 3 1 2 3 1 6 6 6 6 3 1 5 2 2 5 6 4 3 4 2 5 3 3 1 4 0 1 1 2 0 4 3 2 3 1 0 2 3 3 4 3 8 10 7 2 8 6 4 3 0 0 3 6 6 8 8 5 4 1 2 4 7 5 5 3 2 4 3 1 4 3 4 5 4 8
29 29 28 28 28 29 30 30 31 29 27 17 3 1 1 0 3 2 5 7 5 2 2 5 4 3 1 1 1 3 2 3 3 3 1 4 3 2 1 1 2 2 2 1 1 3 4 7 4 4 2 3 3 9 6 8 6 8 5 3 3 2 0 3 4 6 7 7 7 4 2 6 7 7 13 11 2 2 1 4 7 4 1 8 3 5 3
28 29 29 28 28 29 30 30 31 30 26 22 1 3 4 2 1 3 0 1 3 7 6 8 6 6 1 3 0 2 4 3 1 3 2 2 4 2 3 9 10 4 2 0 1 3 2 3 3 4 3 6 10 9 9 3 11 8 4 4 2 1 1 4 2 4 6 7 8 6 4 6 7 9 8 7 4 2 5 5 7 4 4 8 8 3 3
28 29 30 28 27 30 30 30 30 31 30 17 6 5 4 3 1 0 3 1 1 2 6 5 3 7 4 2 1 3 2 5 2 1 3 4 4 5 2 6 7 6 3 3 1 2 2 3 1 3 5 4 4 5 6 4 9 9 7 5 1 1 3 5 6 7 3 4 6 6 8 5 7 8 7 4 3 6 5 5 4 6 6 8 9 5 6
27 28 29 28 27 28 30 30 30 30 29 11 11 7 3 4 3 5 4 1 2 3 3 4 5 4 5 3 3 3 4 4 4 2 2 1 2 3 5 4 4 5 7 3 3 1 2 1 1 2 2 6 2 2 3 4 3 5 5 5 3 1 5 0 0 1 2 3 6 5 7 8 9 9 2 2 3 3 4 3 4 4 4 4 5 2 4
26 27 28 28 26 27 28 29 29 29 24 8 7 3 4 3 1 0 2 5 4 2 3 3 3 2 6 5 4 4 8 4 3 1 1 4 1 1 3 1 3 2 5 5 2 1 3 2 3 3 1 2 2 0 4 4 9 10 3 1 4 5 5 2 1 2 4 3 4 8 5 5 7 5 1 3 5 6 4 3 3 0 5 2 0 3 4
25 26 26 27 26 25 26 26 27 25 18 5 3 5 5 2 2 1 1 1 2 3 3 3 3 3 3 3 4 3 4 6 6 2 2 4 5 3 2 1 3 1 3 1 5 5 4 3 2 4 4 4 4 5 5 4 5 3 5 2 3 3 1 1 0 2 3 6 5 3 3 6 13 8 5 9 9 5 1 1 1 2 2 1 1 4 2
24 24 25 26 27 26 25 25 25 25 14 9 5 3 5 6 6 5 4 1 4 4 3 3 4 1 3 6 4 3 4 8 5 2 2 4 3 3 3 3 3 2 2 2 5 5 5 4 5 2 3 4 4 5 6 9 7 7 5 3 2 2 3 4 3 3 2 2 2 2 3 8 8 3 6 5 2 1 1 1 1 1 2 2 4 2 1
23 23 24 25 25 25 24 24 24 25 16 6 1 2 2 3 2 1 2 1 4 2 3 1 3 3 4 6 4 3 5 6 5 2 1 1 4 5 5 2 3 2 3 1 1 2 2 1 0 2 4 4 6 8 9 11 11 8 8 8 5 7 5 4 3 2 5 3 1 3 7 10 3 1 2 3 5 5 4 4 3 1 0 5 4 1 0
23 23 23 23 23 24 23 23 25 23 21 9 5 4 5 5 1 1 0 1 3 3 4 3 4 4 5 4 4 4 4 4 5 6 2 4 4 5 4 5 2 2 1 2 2 4 2 2 3 3 6 8 8 8 8 9 10 10 9 10 7 6 7 3 2 3 1 1 3 2 12 2 2 4 5 1 4 1 1 1 1 3 3 6 5 3 2
22 22 22 22 22 23 23 23 23 22 22 15 7 6 5 6 5 3 2 1 4 2 1 4 4 7 8 8 2 3 3 7 5 3 5 2 3 5 4 4 3 1 2 2 3 2 3 5 3 5 6 6 5 3 3 10 7 5 8 8 10 11 3 3 6 3 8 4 7 11 5 9 6 4 4 5 7 3 5 5 2 1 0 3 3 3 3
21 21 21 21 21 20 22 22 22 23 22 18 6 6 6 7 5 0 2 1 2 3 2 4 7 6 5 3 3 4 4 4 7 6 4 3 1 2 3 9 6 4 1 1 1 4 1 2 2 4 5 4 4 4 6 3 5 7 5 5 5 7 7 6 6 4 6 8 5 3 2 7 2 3 6 6 2 4 4 6 1 2 2 2 3 1 2
20 21 21 21 20 20 20 20 20 20 20 19 7 5 5 4 4 2 0 1 0 1 2 3 4 4 3 1 5 2 3 3 4 3 6 4 4 7 5 9 9 4 3 3 2 2 1 2 2 1 1 1 2 4 2 5 6 4 4 5 8 4 8 5 10 3 2 2 5 4 5 5 1 5 5 6 4 3 1 2 3 2 2 2 2 1 2
19 20 20 21 20 19 20 19 19 19 20 19 8 6 3 4 6 5 3 3 1 4 0 8 6 2 4 5 7 5 4 3 4 3 4 6 5 6 10 10 6 4 3 2 0 1 0 0 1 2 3 2 1 2 5 3 3 7 9 5 6 8 3 4 3 4 3 3 3 6 1 2 2 4 4 8 5 3 3 2 4 2 3 4 1 4 1
19 19 19 19 19 18 19 18 19 19 19 19 9 3 4 5 7 5 2 1 1 4 1 7 9 4 4 2 3 4 1 3 5 2 1 3 2 6 8 7 7 5 3 3 2 1 1 2 2 2 3 3 2 2 4 2 4 3 5 7 4 5 5 1 6 5 4 2 3 1 3 1 2 4 5 8 3 4 2 5 2 3 4 3 3 2 4
18 19 18 19 19 18 17 17 17 18 19 18 10 5 2 5 8 7 1 2 2 3 5 10 4 0 2 2 2 2 1 1 0 2 3 5 2 5 5 5 1 4 6 1 1 0 1 2 0 1 1 2 1 3 1 3 2 3 4 6 5 3 2 4 3 1 3 3 3 5 1 2 1 6 6 3 2 0 3 2 3 4 4 4 4 4 5
18 18 19 19 18 17 17 17 16 17 18 18 10 1 6 4 5 7 6 4 1 4 7 5 1 6 4 3 4 3 7 3 1 1 0 1 4 5 6 2 2 3 6 2 3 1 1 2 0 1 2 1 1 2 3 2 1 1 2 1 0 3 2 2 1 3 2 1 2 0 1 0 5 3 4 1 1 3 3 4 5 3 4 4 5 4 5
18 19 19 18 18 17 16 16 17 16 17 18 12 4 7 3 7 6 3 2 3 5 6 4 3 9 4 4 5 5 3 6 4 0 3 2 3 2 2 0 4 2 1 2 2 4 2 3 4 1 1 1 3 4 1 1 5 4 3 2 2 2 2 2 1 1 1 1 1 1 2 3 2 2 1 2 4 4 4 2 4 4 4 4 4 4 4
18 18 18 18 17 17 15 16 17 17 18 17 14 3 3 5 5 5 6 2 2 4 6 8 6 8 9 8 7 7 9 10 10 5 2 2 1 1 3 0 3 0 0 1 4 3 4 1 3 3 3 4 2 2 1 6 3 4 5 1 2 2 1 2 2 3 1 2 2 5 4 3 4 5 5 5 5 3 4 3 4 4 4 2 1 4 5
18 17 18 18 17 16 15 15 15 16 17 17 11 3 4 7 8 7 5 4 3 3 3 3 3 3 3 4 3 4 7 9 5 5 3 2 3 0 2 1 3 0 0 2 4 2 2 2 2 1 3 2 1 3 2 5 3 1 3 0 3 1 1 2 1 5 3 5 7 3 3 2 4 5 5 4 3 2 1 0 1 3 4 3 4 5 7
17 17 18 17 17 16 15 15 16 14 16 15 10 3 4 4 6 6 6 2 1 7 5 2 5 4 7 11 16 13 6 4 1 5 3 3 4 2 2 1 2 1 1 3 5 3 2 2 4 1 1 3 3 2 2 4 3 3 2 4 2 2 1 0 2 2 4 5 3 5 9 8 7 7 3 4 4 3 3 2 4 5 5 6 6 7 7
18 17 16 15 16 16 16 16 16 16 14 15 11 3 3 3 3 4 4 4 5 4 1 6 3 4 3 6 7 4 3 7 6 5 2 4 5 4 5 5 5 3 6 4 1 2 2 1 2 1 4 2 1 5 4 2 5 1 2 3 2 5 1 8 3 3 4 6 5 9 10 7 7 6 2 3 3 4 4 5 5 5 5 5 8 6 7
18 17 16 16 15 15 15 15 16 16 16 16 12 4 4 5 5 3 1 2 3 1 1 3 7 6 6 12 10 6 11 10 8 9 2 4 5 7 6 0 2 1 2 2 5 4 3 1 1 2 2 5 3 3 2 4 4 2 4 8 6 6 4 5 2 6 7 8 9 8 7 8 5 3 4 5 4 4 5 5 5 5 6 8 8 6 8
17 17 17 16 16 16 17 16 16 15 16 16 7 3 4 6 4 3 2 1 3 3 2 2 5 8 9 14 11 6 7 8 9 7 9 8 2 3 4 4 5 0 2 0 1 2 1 1 3 4 4 5 1 3 2 5 5 5 4 7 5 4 9 6 4 7 7 6 9 4 6 9 8 5 7 6 5 4 5 5 5 5 7 8 9 10 8
17 17 17 17 17 17 16 16 15 15 15 15 7 5 4 3 4 3 2 2 1 2 3 4 6 10 8 7 4 7 11 8 6 5 6 8 10 7 4 6 5 2 1 3 1 0 1 1 5 4 2 2 0 4 2 2 1 3 5 8 5 5 7 3 5 5 8 8 8 5 6 7 9 7 4 5 5 5 7 8 8 8 7 8 9 9 9
18 18 18 18 17 17 16 15 14 13 15 10 5 7 5 4 5 4 4 3 4 2 4 5 5 4 2 8 12 9 9 7 7 6 5 6 4 3 2 3 3 2 2 1 1 2 2 4 2 3 2 3 2 3 1 3 2 6 9 8 5 6 7 9 10 8 9 10 8 5 3 7 9 7 7 8 6 6 10 9 8 8 8 8 9 9 9
19 19 19 18 17 16 14 13 12 12 11 4 4 2 3 2 1 2 2 1 2 2 1 3 5 4 3 3 5 7 7 9 8 6 4 3 2 3 1 0 1 3 2 3 4 2 3 2 2 2 1 3 2 2 1 2 3 7 8 7 9 8 9 9 9 9 11 6 5 5 7 9 8 8 8 7 7 7 9 9 8 8 8 7 9 10 7
21 20 19 18 17 16 15 13 13 11 6 2 2 1 0 1 1 1 5 3 2 2 0 1 5 4 5 3 3 7 8 10 7 5 4 3 4 3 2 1 1 3 1 0 1 4 2 2 1 3 2 4 4 2 4 1 3 6 8 5 8 7 7 9 7 8 9 9 7 5 4 6 6 7 9 7 8 6 5 4 7 8 9 10 10 9 8
21 21 20 19 18 16 15 14 11 9 1 2 1 2 2 2 3 5 6 4 3 2 0 1 3 2 3 3 3 3 6 6 3 3 4 3 4 1 3 1 4 3 4 4 3 1 3 4 3 3 3 5 5 1 1 3 7 12 10 5 7 7 8 10 10 10 9 8 5 7 8 8 7 8 10 5 6 6 7 9 10 9 10 10 9 7 7
22 22 21 20 19 18 16 13 9 4 3 6 8 10 12 15 17 14 6 2 0 1 1 1 1 2 2 5 6 5 1 3 4 4 5 2 2 2 4 2 1 2 1 1 1 2 3 3 2 2 5 4 2 2 3 7 10 13 12 11 9 9 10 10 9 8 7 6 4 8 10 9 9 8 6 6 8 8 8 9 10 8 7 8 8 7 6
23 23 23 22 20 18 16 10 5 2 2 1 3 4 5 9 10 10 2 1 0 1 1 1 1 1 4 4 4 6 1 3 5 1 3 5 1 3 4 2 2 1 1 3 4 1 2 1 3 4 1 2 1 0 4 8 9 9 10 9 8 8 7 7 7 8 7 7 6 8 9 8 7 7 6 6 7 6 5 6 7 8 7 5 7 7 4
24 24 23 22 20 17 9 3 4 2 1 2 3 5 3 3 4 5 5 2 1 0 0 1 1 1 3 3 1 6 2 1 3 2 0 5 1 1 2 1 2 2 7 1 0 2 2 4 4 0 7 1 2 3 4 4 7 9 10 11 10 8 7 8 5 4 5 5 4 5 6 5 6 7 7 6 6 5 6 7 5 4 6 7 8 6 3
25 24 22 20 16 4 4 4 2 2 1 1 4 6 4 5 5 2 1 1 2 0 0 1 1 3 2 2 2 4 1 2 2 1 1 1 4 1 0 1 2 6 2 1 3 1 2 2 2 4 1 1 5 2 3 4 9 11 12 12 10 7 8 9 11 11 10 6 6 6 5 4 4 5 4 4 4 5 5 7 7 6 5 6 3 2 2
24 24 21 14 3 2 3 1 1 1 1 6 3 8 8 5 1 1 1 1 1 1 1 0 1 4 4 4 1 4 1 3 1 2 2 2 3 1 1 1 4 3 1 2 2 2 6 1 1 3 2 5 4 3 5 6 9 11 13 12 9 9 10 10 9 7 7 5 1 3 3 4 5 5 5 6 7 6 6 7 8 8 9 2 2 1 2
22 18 6 4 3 2 1 1 0 5 13 9 4 2 2 3 0 0 1 1 1 1 0 0 3 3 2 1 3 5 0 5 1 1 3 1 2 3 0 1 3 1 4 1 4 3 1 1 2 3 5 2 2 4 7 8 9 10 9 7 8 8 7 7 5 4 5 3 4 7 6 7 6 6 6 8 8 8 7 6 7 7 2 3 2 2 3
12 5 3 2 1 0 1 3 3 14 10 3 1 0 1 0 0 0 1 1 1 1 1 3 4 3 3 2 6 4 2 1 3 1 1 2 1 5 1 1 3 1 2 1 6 2 1 2 2 1 3 3 6 7 7 9 9 9 6 5 6 8 5 5 7 6 4 3 3 3 3 4 6 7 6 8 8 7 5 4 7 2 5 4 4 2 5
4 6 3 3 1 2 4 4 8 7 1 1 0 1 0 0 1 1 0 1 0 1 2 3 4 4 6 7 3 5 1 3 4 4 2 5 1 1 2 1 2 0 2 0 4 1 1 3 1 2 4 3 6 6 8 8 9 8 6 5 6 3 5 6 6 5 4 4 5 4 3 4 4 6 7 8 7 6 7 7 4 3 8 9 10 10 11
2 2 2 2 4 3 5 7 5 0 0 0 0 0 1 1 1 1 0 1 1 2 2 4 1 1 1 0 1 2 5 0 2 2 1 2 3 1 1 1 2 0 1 1 3 1 0 1 1 1 3 4 7 10 9 9 7 5 4 5 5 2 5 5 6 7 6 5 5 4 4 4 4 5 6 6 3 7 6 4 8 8 10 11 11 9 8
4 4 5 6 6 6 5 2 0 1 0 0 1 1 1 2 1 1 1 1 1 0 1 1 2 1 2 1 3 1 3 1 1 1 1 1 1 1 3 1 1 1 2 5 1 1 2 1 2 3 3 6 8 9 9 9 5 4 5 7 3 5 5 4 6 7 7 7 6 5 5 6 7 6 6 5 8 8 7 7 9 8 9 8 9 9 9
16 12 5 3 1 1 1 1 1 1 1 1 2 2 1 0 1 1 2 0 1 1 2 0 0 1 2 2 4 1 2 0 0 1 0 2 2 0 0 1 0 1 3 2 1 0 1 1 2 4 3 7 9 9 9 7 5 4 4 1 4 5 4 6 8 8 8 8 9 8 7 8 9 7 6 6 9 11 9 8 7 9 10 11 11 10 9
8 2 0 0 1 3 1 1 0 1 1 1 1 1 1 1 5 1 0 1 1 1 1 1 1 2 4 2 1 3 2 2 2 0 1 1 0 1 0 1 2 5 1 1 1 0 2 2 4 3 6 6 8 9 8 7 5 4 2 5 5 5 5 7 8 8 9 8 8 8 9 9 8 8 9 10 10 10 9 9 9 13 15 14 13 12 10
1 3 1 1 1 2 1 2 1 1 2 2 1 2 1 2 4 2 4 4 3 2 1 1 2 1 2 4 1 1 1 1 1 1 1 0 1 0 0 2 2 1 0 2 1 2 1 2 3 4 5 8 10 10 9 7 5 4 2 3 4 5 6 7 7 7 8 8 9 8 9 8 9 9 10 10 9 8 10 11 9 12 13 14 14 13 11
2 0 1 2 4 3 1 1 0 1 2 1 1 0 2 4 4 6 5 2 2 1 2 2 1 1 2 3 1 2 1 1 1 1 1 0 0 2 2 1 1 1 1 1 1 2 3 5 4 6 5 7 9 8 6 4 4 4 3 5 5 5 6 6 7 8 7 7 7 8 8 8 8 9 10 9 9 10 10 10 11 12 12 14 13 11 10
2 1 0 0 0 3 0 0 2 2 1 3 3 4 5 7 8 6 1 2 3 6 1 1 1 2 1 3 1 3 1 0 1 3 0 1 1 2 2 2 1 0 0 1 1 2 5 6 4 4 5 7 8 7 6 4 4 3 2 3 4 4 5 6 7 7 5 6 7 8 8 8 8 7 8 11 10 9 9 10 12 12 12 11 10 10 11
2 1 0 1 2 1 1 3 1 4 3 2 5 6 6 4 6 4 1 2 4 2 3 1 2 3 3 2 1 3 3 1 1 4 1 1 1 1 1 0 1 1 1 2 4 3 5 6 5 5 4 3 6 5 5 6 6 5 2 3 3 4 4 4 4 3 3 4 5 5 5 6 7 7 9 9 9 8 8 8 9 9 10 10 10 10 10
2 1 1 1 1 1 2 1 6 7 9 8 6 6 6 7 7 5 3 1 3 2 4 1 1 1 2 1 0 1 2 1 1 2 1 1 0 1 0 1 1 3 3 3 3 4 5 6 4 4 5 4 4 3 2 2 4 5 3 2 4 4 4 4 4 4 3 3 3 3 4 4 5 6 6 7 9 7 6 7 9 9 9 10 10 10 10
1 2 1 2 2 4 4 4 3 6 5 6 6 7 6 6 7 5 3 2 2 2 1 2 1 1 2 1 1 0 2 1 1 1 1 1 1 0 1 1 2 3 3 3 4 6 6 6 2 3 4 5 4 3 4 4 4 5 3 1 2 4 4 4 4 3 3 3 4 4 4 3 4 6 8 9 6 5 6 7 8 8 8 7 9 9 9
1 2 3 4 6 5 1 2 3 6 8 8 7 8 5 6 5 5 1 3 2 2 1 1 1 0 1 1 0 1 1 0 1 1 2 2 1 1 2 3 4 4 6 6 7 7 6 5 1 1 4 4 4 3 3 3 4 5 5 3 2 4 4 3 3 3 3 2 2 5 5 4 3 3 3 3 5 6 7 6 5 5 6 6 7 8 9
1 2 3 3 5 7 7 6 4 6 8 9 9 8 5 7 5 7 1 4 4 1 1 1 1 1 1 1 2 1 1 1 1 0 2 2 1 1 2 4 6 7 7 7 8 7 6 4 3 3 4 4 5 5 4 3 3 3 3 2 1 4 4 4 4 3 3 3 2 3 2 2 2 3 3 4 4 5 7 5 4 4 5 6 6 7 8
Wind_Direction
5 3 0 358 357 356 355 354 354 357 355 16 353 332 21 48 226 255 316 297 96 67 24 307 21 25 310 322 42 329 345 314 330 5 357 335 31 32 44 222 16 294 30 349 1 32 309 253 257 249 335 314 260 296 342 348 343 88 319 23 270 120 76 49 280 292 300 319 304 358 34 19 16 14 43 64 34 51 168 232 214 219 288 288 338 226 256
5 3 2 0 359 358 355 352 351 353 7 347 300 43 76 271 252 317 308 30 95 78 34 338 335 313 315 348 307 305 300 349 348 3 326 326 324 102 250 341 53 275 48 72 345 23 27 299 5 324 336 335 321 30 359 0 339 0 224 128 256 33 303 109 15 356 346 343 350 359 341 47 67 307 296 98 82 73 218 214 90 276 225 180 139 238 283
6 5 3 1 0 358 356 352 348 349 353 356 205 44 284 300 281 253 305 356 51 90 152 117 302 346 332 347 348 347 346 335 303 311 310 302 172 96 316 179 290 36 54 57 212 215 156 277 288 342 326 281 345 25 3 13 330 213 229 160 111 148 200 118 255 243 268 286 316 273 282 272 270 211 286 61 30 327 24 6 352 71 280 118 163 257 260
7 6 5 3 1 360 358 353 350 345 347 355 119 255 41 27 6 305 334 12 18 60 42 88 48 358 352 0 290 323 319 326 315 352 278 9 356 33 205 346 92 48 32 11 14 322 329 316 269 357 315 336 354 358 329 360 15 336 357 23 58 109 41 118 154 166 197 203 209 239 163 342 300 285 277 280 85 88 104 115 130 211 245 303 241 229 289
8 8 6 4 2 1 360 357 352 348 342 355 139 30 111 2 64 348 334 335 35 69 18 32 38 334 271 307 286 310 289 279 311 42 329 29 45 3 322 346 30 294 42 318 339 12 351 355 50 15 6 309 300 309 321 342 26 14 360 358 83 54 354 274 175 202 200 189 203 213 229 255 263 277 284 298 124 141 212 235 249 183 44 285 250 228 237
9 9 8 6 4 4 3 0 355 350 343 339 75 33 4 64 297 87 207 165 291 360 336 10 337 318 329 239 264 263 303 331 306 315 313 73 26 68 329 33 4 8 100 114 57 335 7 13 9 323 21 344 340 347 341 348 7 11 353 11 70 142 214 272 160 248 211 195 204 209 224 228 241 252 260 266 269 200 245 231 220 139 173 230 262 195 224
10 9 9 8 6 6 5 4 359 355 345 339 72 54 326 102 315 339 353 76 265 181 259 312 340 321 324 266 317 264 258 267 251 3 335 15 15 48 62 355 352 5 347 94 118 20 54 325 320 33 334 360 340 355 336 329 18 19 350 341 155 63 257 232 202 242 228 225 218 225 224 242 252 252 253 238 222 254 228 246 215 177 213 222 250 267 238
10 10 9 9 8 7 8 7 3 359 346 333 71 45 37 6 21 321 356 0 301 281 334 344 7 357 342 12 303 315 6 357 341 356 79 349 25 59 84 353 359 23 20 46 108 176 145 170 296 296 42 337 35 310 217 291 334 32 345 319 321 74 275 227 11 14 302 278 258 247 234 233 254 251 193 167 223 250 244 222 248 195 264 263 254 279 289
10 10 9 9 9 8 9 10 8 4 353 45 32 66 26 297 237 306 321 343 292 324 10 350 341 16 351 26 326 5 350 336 310 254 286 113 122 92 109 144 28 22 70 76 91 204 161 161 190 222 207 288 239 53 282 353 312 327 324 359 317 10 278 2 44 315 300 270 249 255 260 280 273 273 59 301 300 292 259 231 232 201 259 279 30 290 264
10 10 9 9 10 9 10 11 12 11 2 64 15 29 318 312 276 291 136 282 333 20 328 320 44 20 333 350 335 354 329 347 355 357 350 99 111 115 129 160 98 343 30 152 183 208 184 205 219 212 230 217 253 234 250 258 265 273 292 248 254 206 216 345 2 291 263 250 229 261 11 356 287 273 205 219 238 243 278 300 103 218 179 128 178 234 217
9 9 9 9 9 10 10 12 13 15 17 34 15 343 343 14 332 347 33 42 315 14 27 5 72 328 341 345 339 346 348 359 359 59 291 351 346 141 111 90 93 252 243 232 208 188 208 206 225 192 208 234 245 266 271 272 248 234 241 268 255 176 198 248 160 211 239 279 16 44 36 257 240 231 173 151 179 182 177 305 172 224 128 197 177 193 223
9 8 8 9 9 9 11 11 13 15 21 9 283 267 288 309 310 88 54 61 268 323 56 279 30 294 330 312 339 331 351 355 343 323 292 288 293 334 20 93 101 355 244 253 234 252 239 165 169 219 210 235 248 254 255 256 259 236 224 225 239 246 259 234 175 194 250 260 16 347 257 259 205 240 215 153 153 139 161 188 209 201 316 81 90 111 42
8 8 8 8 8 9 11 11 12 12 13 8 23 10 309 316 349 47 112 123 257 336 14 312 320 301 307 321 346 348 347 334 359 343 352 20 333 358 1 342 343 240 164 196 56 48 57 316 330 351 329 324 306 290 279 263 265 250 224 217 216 229 214 221 242 154 57 89 138 215 248 233 281 295 275 218 93 83 142 55 314 276 185 152 151 199 217
7 7 7 7 8 9 10 11 11 10 10 12 5 348 323 340 23 20 38 58 294 280 313 302 338 348 347 327 344 331 358 6 333 0 17 329 344 26 353 18 312 293 175 113 58 72 14 36 358 9 329 337 332 358 301 323 281 267 260 225 208 217 159 164 256 170 221 182 182 233 336 317 290 275 270 238 244 175 162 223 250 261 245 134 150 193 216
6 6 6 6 6 7 8 9 10 9 9 9 3 343 353 352 5 333 280 104 247 298 11 39 316 312 313 315 24 11 14 330 14 337 307 309 19 12 6 343 312 287 268 72 354 35 125 85 15 9 322 34 354 291 326 295 326 307 296 292 234 201 191 193 178 245 178 222 265 309 310 263 285 245 302 356 332 130 143 104 282 285 272 195 144 212 256
3 5 5 5 4 5 6 5 9 9 8 6 6 347 310 334 338 324 102 174 91 21 44 346 324 302 323 13 346 26 5 8 337 324 349 346 343 345 4 345 328 339 30 82 115 99 80 97 233 104 240 223 251 310 285 333 314 303 351 352 349 299 212 171 179 219 100 168 214 229 228 247 217 305 318 330 21 86 66 64 281 252 240 265 204 281 240
1 2 3 2 2 2 3 3 5 8 9 9 351 337 294 360 16 344 346 10 62 226 29 22 341 342 26 344 359 13 354 35 355 22 337 341 340 342 328 342 316 16 26 67 11 77 43 79 184 177 261 225 260 222 292 293 296 313 328 12 5 3 50 106 189 233 181 151 199 240 190 244 333 316 317 319 353 48 65 278 275 265 269 273 224 258 245
359 1 0 359 359 360 360 2 3 4 6 5 1 314 292 328 353 336 25 55 347 286 232 27 1 25 22 322 289 272 357 17 8 344 58 291 356 7 331 339 342 328 27 38 28 51 155 143 166 208 228 247 220 297 263 269 311 320 341 338 346 359 339 91 221 223 237 174 261 349 305 329 276 298 322 317 23 56 91 204 238 244 251 256 211 209 226
357 359 358 358 359 356 358 359 360 1 2 6 357 350 303 343 341 358 24 16 54 279 288 342 287 109 278 296 258 297 47 324 304 66 311 360 352 329 297 282 42 347 355 103 54 138 134 265 57 157 146 299 358 240 290 338 275 327 11 1 7 350 342 308 31 59 240 220 198 233 231 238 256 261 240 276 25 43 209 232 213 257 262 239 195 204 236
355 356 355 356 356 354 354 357 359 0 1 3 13 321 272 304 337 4 10 346 286 270 289 272 24 341 338 333 328 356 329 10 105 113 69 270 277 342 7 357 332 21 333 50 21 268 95 244 242 1 317 240 277 356 342 272 30 306 306 283 38 297 356 264 329 304 7 103 216 9 222 288 202 272 356 49 110 228 230 273 297 231 227 213 249 224 254
352 352 353 352 352 352 352 353 356 359 358 360 6 7 336 324 349 347 25 8 298 314 303 289 332 310 305 274 247 242 232 240 259 10 240 198 247 57 40 285 294 338 331 16 5 316 14 330 343 336 250 83 294 25 273 327 312 284 70 357 286 264 42 313 307 174 211 291 240 179 203 246 215 162 273 249 218 262 270 229 274 277 229 232 246 263 241
349 350 350 350 349 348 349 349 349 352 354 355 357 21 321 304 329 336 326 302 196 201 226 282 289 275 268 261 258 237 231 238 242 193 216 293 311 150 202 227 271 257 324 63 30 352 14 321 342 27 351 316 14 220 11 351 292 267 332 334 346 45 224 195 233 278 204 219 220 255 260 222 239 188 224 234 269 252 242 232 244 266 288 218 186 254 268
348 347 348 347 346 346 345 343 344 349 351 350 356 31 322 319 328 330 332 340 307 295 280 303 309 297 287 258 246 266 249 228 253 279 207 139 311 325 178 239 285 220 87 103 164 169 214 97 251 219 304 239 232 297 292 194 243 291 284 246 222 250 312 263 215 259 291 274 239 221 246 240 274 241 242 231 227 257 140 153 283 247 234 209 210 241 247
345 346 346 346 343 343 343 342 342 346 348 345 348 341 324 317 305 343 348 319 12 320 326 344 44 350 7 349 334 329 352 39 270 253 203 157 241 302 335 247 195 45 123 198 175 145 201 153 227 139 231 249 338 260 269 291 248 235 266 311 275 254 195 74 230 272 4 281 330 331 302 306 299 294 234 224 199 212 200 227 215 233 239 244 241 237 249
343 342 342 341 342 340 340 339 337 337 341 340 340 323 304 320 319 2 7 348 338 28 310 305 315 219 350 316 291 286 319 317 297 304 261 177 171 191 230 220 182 214 250 220 127 81 81 158 312 233 238 241 131 271 197 221 284 170 303 275 349 305 345 344 262 256 219 247 283 291 287 278 266 250 232 275 275 269 251 225 233 247 255 253 264 272 277
340 338 338 337 337 335 332 332 332 334 333 334 337 337 321 288 292 339 330 234 254 232 235 318 282 308 337 346 343 318 301 307 323 328 307 207 216 198 210 285 316 67 148 131 121 146 157 126 170 208 176 281 162 191 218 209 249 302 257 252 218 248 326 259 264 297 282 288 288 283 300 298 291 286 270 266 260 267 282 275 267 264 268 270 270 252 252
337 337 336 336 334 334 333 332 332 333 332 329 327 313 290 283 265 259 256 318 8 350 27 282 276 306 349 323 301 311 314 318 319 322 326 322 272 216 204 221 220 148 149 217 18 140 119 145 135 226 179 233 206 226 213 288 271 277 266 267 262 278 260 257 279 286 282 257 277 306 315 303 301 278 268 276 277 275 275 288 291 275 271 269 268 272 263
336 336 336 334 332 330 330 329 329 329 330 329 329 309 273 268 269 233 214 162 137 201 278 287 310 300 305 268 267 308 305 307 304 311 312 312 316 305 213 202 191 153 111 121 272 91 132 154 244 227 213 289 49 283 182 232 40 299 236 249 217 211 253 252 236 231 262 266 264 261 245 260 259 273 256 259 275 275 278 277 271 269 257 257 260 267 274
335 336 334 332 330 330 329 328 328 330 331 338 332 325 318 269 257 251 244 204 155 262 278 287 287 332 340 304 312 312 309 317 309 304 305 301 311 27 91 146 161 163 103 113 140 146 172 223 182 181 196 212 110 255 95 258 203 245 241 247 229 223 231 243 253 257 259 257 257 236 229 265 278 275 274 271 258 255 264 261 255 256 259 262 262 255 260
332 331 329 324 324 321 318 314 312 317 328 16 13 6 23 356 345 49 317 260 184 131 350 334 332 265 284 306 293 302 311 324 326 316 293 282 318 324 225 140 179 162 153 177 156 221 218 194 254 267 201 147 197 261 150 226 234 251 256 255 247 253 247 250 252 244 261 255 244 246 245 257 262 268 265 262 263 260 266 273 269 271 270 263 261 267 252
328 325 320 317 312 308 302 297 298 302 338 67 38 36 15 81 288 346 21 6 45 98 158 144 248 290 314 256 258 291 310 320 308 306 307 295 271 248 244 156 242 139 160 23 118 224 157 244 171 270 200 188 156 198 207 207 266 270 252 223 244 242 251 254 253 250 253 262 257 257 271 267 273 291 284 269 268 264 267 274 275 268 269 274 271 264 268
325 321 317 314 310 303 296 292 286 287 238 150 153 191 190 195 217 318 328 343 41 49 91 2 321 330 284 303 278 279 310 301 310 339 328 340 331 313 332 184 237 214 185 182 214 114 221 210 165 227 204 202 151 256 211 217 246 258 276 254 257 261 264 269 269 268 263 258 278 305 292 280 260 250 268 275 285 280 277 277 277 276 273 272 275 273 257
324 321 317 314 308 302 293 279 271 242 191 222 225 250 263 268 271 272 272 292 63 213 138 102 214 289 287 265 306 314 316 4 350 11 322 316 297 333 313 332 333 305 282 103 247 212 214 174 171 249 242 126 146 222 214 234 246 258 266 273 273 270 270 273 269 265 259 258 226 247 263 267 272 267 268 288 285 282 285 285 287 290 288 281 282 287 291
325 322 318 314 309 304 295 280 246 224 55 47 345 284 248 242 255 258 161 122 144 216 93 125 325 310 266 308 5 283 342 15 289 31 330 301 304 354 272 316 311 335 280 177 247 174 316 90 216 230 19 233 183 83 269 258 267 289 296 293 289 289 287 291 283 274 263 258 253 238 248 259 276 295 297 286 287 293 296 299 306 303 291 285 279 272 255
325 321 316 312 309 314 324 151 116 96 164 204 252 262 254 213 157 141 141 121 80 21 70 291 123 336 323 342 305 277 265 76 323 278 235 275 312 240 295 321 304 344 287 117 350 201 203 232 168 178 251 169 92 240 250 287 315 308 308 303 297 298 305 301 282 271 277 275 260 259 266 273 285 291 291 302 310 321 330 321 321 317 306 288 271 261 194
324 321 316 310 314 337 75 64 56 84 18 249 226 261 233 127 95 93 120 112 131 157 297 226 167 213 198 266 300 276 328 1 256 315 254 270 330 308 187 154 335 254 213 150 229 298 250 238 88 263 291 133 234 206 248 282 299 305 300 292 292 293 283 280 287 289 282 272 269 280 295 300 292 292 316 322 326 326 332 324 318 318 302 293 317 66 94
326 322 316 312 335 48 37 121 238 113 249 279 246 75 76 93 74 66 39 16 328 109 169 183 279 239 183 220 247 277 22 325 299 347 321 0 268 283 17 21 241 257 323 323 324 267 262 116 140 260 276 237 253 251 277 294 304 305 298 294 303 309 299 287 277 278 284 271 337 29 6 357 347 340 333 331 327 324 327 319 307 309 305 298 140 126 125
329 324 336 358 22 52 29 350 357 319 336 330 126 54 351 31 111 339 90 150 257 126 329 87 252 256 255 162 246 252 351 266 62 348 310 261 329 290 232 226 236 330 304 254 256 202 209 72 209 212 266 255 287 315 309 302 305 299 279 284 299 299 296 303 315 358 18 34 24 2 357 349 345 333 333 323 322 316 301 286 289 279 240 171 140 124 72
330 321 7 11 65 268 212 251 309 335 314 261 89 76 299 96 69 330 216 178 71 210 214 158 245 211 193 229 269 280 188 266 326 12 312 275 73 303 352 35 295 23 297 16 294 30 333 319 309 327 286 308 334 318 313 313 308 300 301 299 292 291 328 23 30 48 52 42 10 3 359 332 322 318 317 312 310 308 318 357 340 321 105 68 80 88 90
349 10 351 326 335 257 270 281 338 321 311 28 301 102 231 202 104 264 162 75 277 232 139 234 222 205 191 201 221 303 309 44 338 303 237 303 161 185 263 289 271 21 273 74 252 348 145 283 283 347 280 295 304 309 320 318 309 314 335 312 313 16 48 36 31 22 28 16 9 358 341 312 308 307 315 317 320 3 11 15 12 24 82 82 72 66 67
16 333 328 280 263 297 301 318 321 357 66 40 17 7 58 320 246 207 188 220 207 215 169 198 270 336 299 54 72 312 285 104 229 151 130 236 255 49 46 236 247 34 281 267 278 67 74 353 328 268 254 304 313 321 321 316 308 306 316 311 311 31 55 48 38 27 24 23 15 17 358 343 336 336 333 323 12 43 4 357 43 41 64 68 64 59 63
279 263 235 266 282 285 309 325 91 16 351 178 119 273 214 216 260 326 171 133 258 288 285 249 323 286 268 257 259 193 289 202 123 90 84 320 293 157 233 257 20 106 255 240 212 44 28 318 286 284 277 318 318 319 320 318 305 307 321 308 22 63 56 48 49 43 35 35 26 23 19 24 18 5 343 31 59 55 43 34 51 52 59 64 65 64 65
297 282 239 244 298 286 208 343 284 109 107 350 46 344 330 16 245 230 285 297 324 106 258 99 223 239 290 22 334 259 213 242 58 312 69 239 286 13 57 314 49 325 242 285 56 20 6 252 272 260 302 324 320 321 314 319 321 340 317 2 82 71 65 62 63 54 47 42 39 33 31 38 32 20 15 40 63 62 49 38 47 69 66 69 72 73 72
302 301 99 85 341 283 96 320 241 51 330 145 114 231 275 330 307 348 348 262 256 291 249 105 274 73 297 288 228 298 1 352 46 76 290 265 143 279 9 273 223 239 243 20 32 74 229 226 224 261 305 314 323 325 325 328 334 342 25 71 69 68 62 58 54 52 44 37 37 36 36 39 44 39 39 40 41 58 58 52 52 68 70 67 64 60 61
359 345 338 348 325 264 56 313 308 129 217 258 181 202 182 214 250 229 236 241 144 218 240 148 146 85 285 275 6 302 128 241 173 97 259 187 328 273 143 256 256 356 310 267 315 318 343 285 288 313 323 329 325 323 325 319 330 351 52 66 60 59 56 58 55 46 41 36 38 36 40 35 48 51 48 49 45 43 60 59 52 66 71 73 71 68 65
13 285 337 27 331 308 125 224 252 330 291 167 205 197 289 274 259 265 249 145 141 211 136 192 143 106 305 259 144 241 281 72 22 251 224 347 96 282 248 261 54 17 340 25 347 255 249 278 313 316 318 313 309 305 307 302 324 352 42 79 72 76 73 70 61 55 47 41 35 35 38 41 47 49 55 53 52 50 52 57 58 66 70 69 67 67 64
300 305 281 349 248 270 155 224 250 208 233 315 286 294 280 295 283 248 241 105 152 197 165 195 97 178 226 293 2 342 351 96 209 261 318 26 210 264 14 84 314 274 278 292 266 266 290 293 302 305 305 314 320 321 325 334 342 353 30 100 95 91 86 79 70 72 56 47 50 52 46 43 43 45 56 59 52 49 53 62 64 65 68 73 72 70 66
293 291 37 112 261 236 252 259 309 310 280 246 284 307 298 300 314 319 239 152 171 116 91 37 0 351 353 302 97 212 239 231 276 294 173 220 351 34 3 16 288 250 177 183 240 235 273 289 303 305 300 306 302 309 345 353 343 341 11 106 101 92 87 90 89 84 82 80 73 70 65 58 59 58 60 64 62 49 48 58 65 66 69 68 66 63 63
234 270 244 230 236 270 272 292 354 323 300 305 308 312 310 336 310 285 268 20 104 153 175 136 207 104 265 262 212 9 310 285 101 262 345 15 107 229 172 250 306 307 275 198 225 254 266 281 273 274 294 312 315 321 321 320 328 311 340 81 125 117 110 107 117 115 114 111 114 103 91 89 85 82 80 78 73 56 47 60 66 67 65 69 69 67 62
238 273 230 233 299 291 263 306 324 281 292 312 326 310 308 311 295 274 185 143 184 114 7 24 34 112 233 104 318 312 258 291 195 321 32 270 226 242 68 303 242 211 254 267 265 277 275 267 249 284 291 302 310 312 311 323 329 314 303 310 147 137 143 137 133 130 124 119 118 114 116 108 100 94 92 90 93 99 81 74 76 79 77 75 77 74 70
186 201 231 172 190 237 53 295 276 294 304 298 297 291 292 283 282 289 247 134 96 55 49 145 206 129 18 15 40 358 267 245 13 240 178 221 230 121 175 218 244 230 252 258 260 267 274 265 213 244 281 282 277 270 264 258 278 286 291 289 206 157 157 152 148 146 153 151 122 105 99 101 101 89 76 81 95 91 82 70 72 86 88 81 79 82 80
236 248 253 251 238 244 238 259 269 247 252 266 278 277 287 284 282 272 161 105 100 101 253 239 95 84 76 214 225 200 295 17 240 335 350 287 173 188 225 208 251 259 260 278 286 282 285 263 199 206 247 265 278 275 269 277 293 295 297 278 193 162 160 159 164 168 156 143 133 123 123 102 76 67 72 78 77 78 81 75 48 50 63 72 78 83 84